Terminal Aerodrome Forecast
Issued by NWS Chicago, IL

Home | Current Version | Previous Version | Graphics & Text | Print | Product List | Glossary On
Versions: 1 2 3 4 5 6 7 8 9 10 11 12 13 14 15 16 17 18 19 20 21 22 23 24 25 26 27 28 29 30 31 32 33 34 35
000
FTUS43 KLOT 242300
TAFRFD
TAF
KRFD 242340Z 2500/2524 28013G22KT P6SM FEW035 SCT060
     FM250200 29012G20KT P6SM FEW250
     FM250600 32007KT P6SM SCT150
     FM251400 03005KT P6SM BKN080=

USA.gov is the U.S. government's official web portal to all federal, state and local government web resources and services.